This demonstration page uses our WeatherBlox Daily Observations layout. Learn more.

Left ArrowRight Arrow

53.62937, 11.41316

Hourly Observations for May 1, 2017

Temp ( °F °C ) Dew Point ( °F °C ) Humidity (%) Winds ( mph kmh ) Pressure ( in mb ) Visibility ( mi km ) Precip ( " mm )
6:20 am 06:20 Mostly Sunny 41 5 34 1 76 76 E 14 22 30.00 1016 7 11 N/A
6:50 am 06:50 Mostly Sunny 41 5 34 1 76 76 E 15 24 30.00 1016 7 11 N/A
7:20 am 07:20 Mostly Sunny 43 6 34 1 71 71 E 17 28 30.00 1016 7 11 N/A
7:50 am 07:50 Mostly Sunny 45 7 36 2 71 71 E 18 30 30.00 1016 7 11 N/A
8:20 am 08:20 Mostly Sunny 46 8 36 2 66 66 E 17 28 30.00 1016 7 11 N/A
8:50 am 08:50 Mostly Sunny 48 9 37 3 66 66 E 17 28 30.00 1016 7 11 N/A
9:20 am 09:20 Mostly Sunny 50 10 37 3 62 62 E 20 31 30.00 1016 7 11 N/A
9:50 am 09:50 Mostly Sunny 52 11 37 3 58 58 E 20 31 30.00 1016 7 11 N/A
10:20 am 10:20 Mostly Sunny 54 12 37 3 54 54 E 20 31 30.00 1016 7 11 N/A
10:27 am 10:27 Mostly Sunny 54 12 37 3 54 54 E 22 35 30.00 1016 7 11 N/A
10:50 am 10:50 Mostly Sunny 55 13 37 3 51 51 E 21 33 30.00 1016 7 11 N/A
10:52 am 10:52 Mostly Sunny 55 13 37 3 51 51 E 20 31 30.00 1016 7 11 N/A
11:20 am 11:20 Mostly Sunny 55 13 37 3 51 51 ENE 21 33 30.00 1016 7 11 N/A
11:50 am 11:50 Mostly Sunny 57 14 37 3 48 48 E 18 30 30.00 1016 7 11 N/A
12:13 pm 12:13 Mostly Sunny 57 14 37 3 48 48 E 20 31 30.00 1016 7 11 N/A
12:20 pm 12:20 Mostly Sunny 59 15 37 3 45 45 E 18 30 30.00 1016 7 11 N/A
12:50 pm 12:50 Mostly Sunny 57 14 37 3 48 48 E 22 35 29.97 1015 7 11 N/A
1:20 pm 13:20 Mostly Sunny 59 15 37 3 45 45 ENE 22 35 29.97 1015 7 11 N/A
1:50 pm 13:50 Mostly Sunny 59 15 39 4 48 48 E 18 30 29.97 1015 7 11 N/A
2:20 pm 14:20 Mostly Sunny 61 16 39 4 45 45 ENE 21 33 29.97 1015 7 11 N/A
2:50 pm 14:50 Mostly Sunny 59 15 39 4 48 48 E 17 28 29.97 1015 7 11 N/A
3:20 pm 15:20 Mostly Sunny 59 15 39 4 48 48 E 20 31 29.97 1015 7 11 N/A
3:50 pm 15:50 Mostly Sunny 59 15 39 4 48 48 ENE 21 33 29.97 1015 7 11 N/A
4:20 pm 16:20 Mostly Sunny 59 15 39 4 48 48 ENE 21 33 29.97 1015 7 11 N/A
4:50 pm 16:50 Mostly Sunny 59 15 39 4 48 48 E 18 30 29.97 1015 7 11 N/A
5:20 pm 17:20 Mostly Sunny 59 15 39 4 48 48 ENE 18 30 30.00 1016 7 11 N/A
5:50 pm 17:50 Mostly Sunny 59 15 39 4 48 48 ENE 17 28 30.00 1016 7 11 N/A

Powered by AerisWeather